Location: PSU-Greenbush Astrophysical Observatory
(37.5140°N, 94.9880°W)
Time: 23:42:34
(UTC-05:00)

BEESAT - Pass Details

Date: 26 February 2020
Orbit: 700 x 709 km, 98.6° (Epoch: 07 April)

Event Time Altitude Azimuth Distance (km) Brightness Sun altitude
Rises 05:53:22 0° 187° (S) 3,083 ? -13.2°
Reaches altitude 10° 05:55:47 10° 196° (SSW) 2,168 ? -12.7°
Maximum altitude 06:00:07 35° 262° (W) 1,124 ? -11.8°
Drops below altitude 10° 06:04:30 10° 328° (NNW) 2,177 ? -11.0°
Sets 06:06:56 0° 337° (NNW) 3,099 ? -10.5°
